Location: Newark
(40.9833°N, 0.0333°W)
Time: 01:55:56
(UTC+00:00)

deb Explorer IX - Pass Details

Date: 02 November 2020
Orbit: 537 x 1105 km, 38.8° (Epoch: 02 December)

Event Time Altitude Azimuth Distance (km) Brightness Sun altitude
Rises 03:14:49 0° 230° (SW) 2,997 - -37.6°
Reaches altitude 10° 03:17:09 10° 222° (SW) 2,166 - -37.1°
Maximum altitude 03:21:52 39° 155° (SSE) 1,166 - -36.3°
Exits shadow 03:23:49 30° 113° (ESE) 1,445 ? -35.9°
Drops below altitude 10° 03:27:22 10° 88° (E) 2,539 ? -35.3°
Sets 03:30:18 0° 81° (E) 3,580 ? -34.7°
